{"data":{"norad_id":41032,"intl_designator":"2015-066A","name":"COSMOS 2510","alt_names":[],"object_type":"PAYLOAD","status":"ACTIVE","operator":null,"country":"CIS","launch_date":"2015-11-17","launch_site_code":"PLMSC","launch_vehicle":null,"mission":null,"orbit_class":"UNKNOWN","rcs_meters":33.2077,"size_class":null,"mass_kg":null,"dimensions":null,"purposes":[],"wikipedia_slug":null,"has_3d_model":false,"image_url":null,"decayed_at":null,"tle_current":{"epoch":"2026-05-21T13:28:38.364096Z","epoch_age_seconds":372969,"freshness":"STALE","line1":"1 41032U 15066A   26141.56155514 -.00001282  00000+0  00000+0 0  9996","line2":"2 41032  63.4971 349.8445 7205430 274.6485  13.7166  2.00973371 76937","mean_motion":2.00973371,"eccentricity":0.720543,"inclination_deg":63.4971,"raan_deg":349.8445,"arg_perigee_deg":274.6485,"mean_anomaly_deg":13.7166,"bstar":0,"rev_number":7693,"period_min":716.51283592193,"perigee_km":1034.2455064894,"apogee_km":39257.945956816,"semimajor_km":26524.232731652,"source":"CELESTRAK","updated_at":"2026-05-25T13:37:55.584355Z"}}}